Regional Weather Roundup
Issued by NWS Kansas City/Pleasant Hill, MO

Home | Current Version | Previous Version | Graphics & Text | Print | Product List | Glossary Off
Versions: 1 2 3 4 5 6 7 8 9 10 11 12 13 14 15 16 17 18 19 20 21 22 23 24 25 26 27 28 29 30 31 32 33 34 35 36 37 38 39 40 41 42 43 44 45 46 47 48 49 50

000
ASUS43 KEAX 241911
RWREAX

WEATHER ROUNDUP FOR EASTERN KANSAS AND NORTHWEST MISSOURI
NATIONAL WEATHER SERVICE KANSAS CITY/PLEASANT HILL MO
200 PM CDT SUN MAY 24 2015

KSZ040-057-103>105-MOZ028-029-037-043-242000-
...KANSAS CITY METROPOLITAN AREA...

CITY           SKY/WX    TMP DP  RH WIND       PRES   REMARKS
K.C. INTL      CLOUDY    68  63  84 SW7       29.87F
K.C. DOWNTOWN  LGT RAIN  71  64  78 SW8       29.86F
LEES SUMMIT    LGT RAIN  67  63  87 SW5       29.89S
OLATHE - IXD   CLOUDY    69  63  81 S5        29.89F
OLATHE - OJC   CLOUDY    68  63  84 SW5       29.88F
LAWRENCE       CLOUDY    70  62  76 SW7       29.88F

$$

MOZ001>008-011>017-020>025-030>033-038>040-044>046-053-054-242000-
...NORTHERN AND CENTRAL MISSOURI...

CITY           SKY/WX    TMP DP  RH WIND       PRES   REMARKS
ST. JOSEPH     CLOUDY    70  64  81 S14       29.85F
MOSBY          DRIZZLE   70  63  78 S3        29.87F
WARRENSBURG    LGT RAIN  64  63  94 CALM      29.88F
WHITEMAN AFB   HVY RAIN  66  64  94 SE2       29.88R FOG
CLINTON        DRIZZLE   66  66 100 CALM      29.90S
SEDALIA        LGT RAIN  76  67  73 S21G37    29.88S
WARSAW         NOT AVBL
CHILLICOTHE      N/A     72  66  81 S7        29.88F
KIRKSVILLE     PTSUNNY   72  68  87 SW12      29.90F

$$

MOZ041-047>049-056>058-063>065-088>090-097-242000-
...EASTERN AND SOUTHERN MISSOURI...

CITY           SKY/WX    TMP DP  RH WIND       PRES   REMARKS
ST. LOUIS INTL PTSUNNY   85  62  46 S15G31    29.98F
SPIRIT OF STL  PTSUNNY   83  64  52 S17G31    29.96F
COLUMBIA       PTSUNNY   79  66  64 S20G29    29.91F
JEFFERSON CITY PTSUNNY   81  64  56 SE17      29.90F
ROLLA          PTSUNNY   78  66  66 S24G33    29.94F
OSAGE BEACH    MOSUNNY   81  64  57 S16G22    29.90F
SPRINGFIELD    LGT RAIN  67  63  87 S15       29.94R
BRANSON        CLOUDY    68  64  88 W5        29.96F
JOPLIN         LGT RAIN  67  65  93 S8        29.93S FOG
WEST PLAINS    PTSUNNY   78  66  66 S16G24    29.99F

$$

IAZ060-094-KSZ022-034>040-054-083-096-NEZ052-066-093-242000-
...KANSAS...SOUTHEAST NEBRASKA AND IOWA...

CITY           SKY/WX    TMP DP  RH WIND       PRES   REMARKS
TOPEKA         CLOUDY    71  62  73 S7        29.87F
MANHATTAN      LGT RAIN  70  61  73 S9        29.85F
EMPORIA        CLOUDY    67  61  81 SE12      29.87F
CHANUTE        CLOUDY    68  62  81 S7        29.90F
WICHITA        CLOUDY    70  61  73 SE9       29.87F
OMAHA          CLOUDY    67  62  84 SE3       29.81F
LINCOLN        CLOUDY    68  60  75 SW8       29.85R
FALLS CITY     LGT RAIN  70  63  78 S9        29.84F
LAMONI         CLOUDY    71  64  78 S12       29.86F
DES MOINES     CLOUDY    67  63  87 SE10      29.85F

$$



USA.gov is the U.S. government's official web portal to all federal, state and local government web resources and services.